Weather History for Madison, WI

Change the Weather History Date:

Monday, April 15, 2013

  Actual Average Record
Temperature  
Mean Temperature 49 °F 46 °F  
Max Temperature 59 °F 57 °F 87 °F (2002)
Min Temperature 39 °F 36 °F 18 °F (1928)
Degree Days  
Heating Degree Days 16 19  
Month to date heating degree days 378 323  
Since 1 July heating degree days 6718 6772  
Cooling Degree Days 0 0  
Month to date cooling degree days 0 0  
Year to date cooling degree days 0 0  
Moisture  
Dew Point 42 °F    
Average Humidity 70    
Maximum Humidity 100    
Minimum Humidity 40    
Precipitation  
Precipitation 0.40 in 0.11 in 1.51 in (1998)
Month to date precipitation 3.97 1.66  
Year to date precipitation 11.66 6.54  
Snow  
Snow 0.00 in 0.10 in 4.50 in (1923)
Month to date snowfall 0.3 1.8  
Since 1 July snowfall 70.6 49.9  
Snow Depth 0.00 in    
Sea Level Pressure  
Sea Level Pressure 29.78 in    
Wind  
Wind Speed 6 mph (SW)    
Max Wind Speed 21 mph    
Max Gust Speed 29 mph    
Visibility 7 miles    
Events Rain , Thunderstorm    
T = Trace of Precipitation, MM = Missing Value Source: NWS Daily Summary

Daily Weather History Graph

Daily Weather History Graph

Search for Another Location

Airport:

Trip Planner

Search our weather history database for the weather conditions in past years. The results will help you decide how hot, cold, wet, or windy it might be!

Date:

Astronomy

Apr. 15, 2013 Rise Set
Actual Time 6:14 AM CDT 7:40 PM CDT
Civil Twilight 5:45 AM CDT 8:10 PM CDT
Nautical Twilight 5:09 AM CDT 8:45 PM CDT
Astronomical Twilight 4:31 AM CDT 9:24 PM CDT
Moon 9:36 AM CDT (4/15) No Moon Set
Length of Visible Light 14h 24m
Length of Day
13h 25m
Waxing Crescent, 25% of the Moon is Illuminated
Apr 15
Waxing Crescent
Apr 18
First Quarter
Apr 25
Full
May 2
Last Quarter
May 9
New

Hourly Weather History & Observations

Time (CDT) Temp. Windchill Dew Point Humidity Pressure Visibility Wind Dir Wind Speed Gust Speed Precip Events Conditions
12:53 AM 48.0 °F - 46.0 °F 93% 29.64 in - West 4.6 mph - 0.09 in Rain , Thunderstorm Heavy Thunderstorms and Rain
1:01 AM 48.2 °F - 46.4 °F 93% 29.61 in 2.0 mi NW 6.9 mph - 0.04 in Rain , Thunderstorm Rain
1:10 AM 46.4 °F 45.2 °F 46.4 °F 100% 29.63 in 1.8 mi Variable 3.5 mph - 0.08 in Rain Rain
1:53 AM 46.9 °F - 46.0 °F 97% 29.67 in 2.0 mi Calm Calm - 0.27 in Rain Rain
2:45 AM 46.4 °F 45.2 °F 46.4 °F 100% 29.64 in 3.0 mi South 3.5 mph - 0.07 in   Overcast
2:53 AM 46.9 °F - 46.0 °F 97% 29.65 in 3.0 mi South 5.8 mph - 0.07 in   Overcast
3:53 AM 48.0 °F - 46.9 °F 96% 29.70 in 4.0 mi SW 4.6 mph - 0.01 in   Overcast
4:25 AM 48.2 °F - 46.4 °F 93% 29.70 in 5.0 mi SW 4.6 mph - N/A   Overcast
4:53 AM 46.0 °F 43.9 °F 46.0 °F 100% 29.72 in 3.0 mi WSW 4.6 mph - N/A   Mostly Cloudy
5:12 AM 44.6 °F - 44.6 °F 100% 29.70 in 1.8 mi Calm Calm - N/A   Mostly Cloudy
5:21 AM 46.4 °F 45.2 °F 44.6 °F 93% 29.71 in 3.0 mi SW 3.5 mph - N/A   Partly Cloudy
5:53 AM 46.9 °F - 45.0 °F 93% 29.71 in 6.0 mi SSW 4.6 mph - N/A   Partly Cloudy
6:53 AM 46.9 °F - 46.0 °F 97% 29.73 in 6.0 mi SW 4.6 mph - N/A   Partly Cloudy
7:53 AM 48.9 °F - 46.9 °F 93% 29.75 in 10.0 mi South 6.9 mph - N/A   Mostly Cloudy
8:53 AM 52.0 °F - 48.9 °F 89% 29.74 in 10.0 mi South 11.5 mph - N/A   Mostly Cloudy
9:53 AM 53.1 °F - 48.0 °F 83% 29.75 in 10.0 mi SSW 9.2 mph - N/A   Mostly Cloudy
10:53 AM 55.9 °F - 37.9 °F 51% 29.75 in 10.0 mi SSW 11.5 mph 20.7 mph N/A   Mostly Cloudy
11:53 AM 57.9 °F - 33.1 °F 39% 29.76 in 10.0 mi SW 13.8 mph 24.2 mph N/A   Mostly Cloudy
12:53 PM 57.0 °F - 36.0 °F 45% 29.79 in 10.0 mi WSW 12.7 mph 19.6 mph N/A   Overcast
1:53 PM 53.1 °F - 33.1 °F 47% 29.83 in 10.0 mi Variable 6.9 mph 20.7 mph N/A   Overcast
2:53 PM 48.9 °F - 39.0 °F 69% 29.85 in 10.0 mi West 9.2 mph 19.6 mph 0.00 in Rain Light Rain
3:53 PM 45.0 °F 39.7 °F 37.9 °F 76% 29.88 in 10.0 mi West 10.4 mph 25.3 mph 0.02 in Rain Light Rain
4:53 PM 42.1 °F 38.4 °F 37.9 °F 85% 29.91 in 4.0 mi Variable 5.8 mph - 0.04 in Rain Light Rain
5:53 PM 43.0 °F 38.8 °F 37.9 °F 82% 29.88 in 10.0 mi SSW 6.9 mph - 0.02 in Rain Light Rain
6:53 PM 42.1 °F 38.4 °F 37.0 °F 82% 29.88 in 10.0 mi SW 5.8 mph - 0.00 in   Mostly Cloudy
7:53 PM 42.1 °F 38.4 °F 36.0 °F 79% 29.89 in 10.0 mi SW 5.8 mph - N/A   Mostly Cloudy
8:53 PM 42.1 °F 40.2 °F 37.0 °F 82% 29.92 in 10.0 mi SW 3.5 mph - N/A   Mostly Cloudy
9:53 PM 43.0 °F 40.3 °F 36.0 °F 76% 29.96 in 10.0 mi Variable 4.6 mph - N/A   Overcast
10:53 PM 42.1 °F - 36.0 °F 79% 29.98 in 10.0 mi Calm Calm - N/A   Scattered Clouds
11:53 PM 41.0 °F - 36.0 °F 82% 29.98 in 10.0 mi Calm Calm - N/A   Partly Cloudy